Weather History for KGOV - July, 2014

Change the Weather History Date:

Wednesday, July 9, 2014

  Actual Average (KHTL) Record (KHTL)
Temperature  
Mean Temperature 58 °F 67 °F  
Max Temperature 68 °F 80 °F 105 °F (1936)
Min Temperature 47 °F 54 °F 34 °F (1942)
Degree Days  
Heating Degree Days 8 2  
Month to date heating degree days 18  
Since 1 June heating degree days 142  
Since 1 July heating degree days 18  
Cooling Degree Days 0 4  
Month to date cooling degree days 33  
Year to date cooling degree days 108  
Since 1 June cooling degree days 92  
Growing Degree Days 8 (Base 50)    
Moisture  
Dew Point 49 °F    
Average Humidity 75    
Maximum Humidity 100    
Minimum Humidity 46    
Precipitation  
Precipitation 0.00 in 0.09 in 1.02 in (1965)
Month to date precipitation 0.75  
Year to date precipitation 13.71  
Sea Level Pressure  
Sea Level Pressure 29.91 in    
Wind  
Wind Speed 6 mph (WNW)    
Max Wind Speed 14 mph    
Max Gust Speed 22 mph    
Visibility 10 miles    
Events      
T = Trace of Precipitation, MM = Missing Value Source: NWS Daily Summary

Daily Weather History Graph

Daily Weather History Graph

Search for Another Location

Airport or City:

Trip Planner

Search our weather history database for the weather conditions in past years. The results will help you decide how hot, cold, wet, or windy it might be!

Date:

Astronomy

Jul. 09, 2014 Rise Set
Actual Time 6:02 AM EDT 9:25 PM EDT
Civil Twilight 5:26 AM EDT 10:01 PM EDT
Nautical Twilight 4:39 AM EDT 10:48 PM EDT
Astronomical Twilight 3:39 AM EDT 11:47 PM EDT
Moon 6:32 PM EDT (7/9) 3:23 AM EDT (7/9)
Length of Visible Light 16h 35m
Length of Day
15h 22m
Waxing Gibbous, 89% of the Moon is Illuminated
Jul 9
Waxing Gibbous
Jul 12
Full
Jul 18
Last Quarter
Jul 26
New
Aug 3
First Quarter

Hourly Weather History & Observations

Time (EDT) Temp. Dew Point Humidity Pressure Visibility Wind Dir Wind Speed Gust Speed Precip Events Conditions
12:16 AM 52.7 °F 50.0 °F 91% 29.79 in 10.0 mi West 5.8 mph - N/A   Mostly Cloudy
12:36 AM 52.7 °F 50.9 °F 94% 29.79 in 10.0 mi West 5.8 mph - N/A   Mostly Cloudy
12:56 AM 52.7 °F 50.9 °F 94% 29.79 in 10.0 mi West 6.9 mph - N/A   Overcast
1:16 AM 52.7 °F 50.5 °F 92% 29.79 in 10.0 mi West 5.8 mph - N/A   Overcast
1:36 AM 52.3 °F 50.9 °F 95% 29.79 in 10.0 mi West 4.6 mph - N/A   Scattered Clouds
2:16 AM 49.1 °F 48.6 °F 98% 29.80 in 10.0 mi Calm Calm - N/A   Clear
2:36 AM 48.4 °F 48.4 °F 100% 29.80 in 10.0 mi Calm Calm - N/A   Clear
2:56 AM 47.7 °F 47.7 °F 100% 29.80 in 10.0 mi Calm Calm - N/A   Scattered Clouds
3:16 AM 47.7 °F 47.7 °F 100% 29.80 in 10.0 mi Calm Calm - N/A   Scattered Clouds
3:36 AM 47.7 °F 47.7 °F 100% 29.81 in 10.0 mi Calm Calm - N/A   Scattered Clouds
3:56 AM 47.7 °F 47.7 °F 100% 29.81 in 7.0 mi Calm Calm - N/A   Mostly Cloudy
4:16 AM 47.7 °F 47.7 °F 100% 29.81 in 10.0 mi Calm Calm - N/A   Mostly Cloudy
4:36 AM 47.7 °F 47.7 °F 100% 29.81 in 10.0 mi Calm Calm - N/A   Overcast
4:56 AM 47.7 °F 47.7 °F 100% 29.82 in 10.0 mi WSW 3.5 mph - N/A   Mostly Cloudy
5:16 AM 48.7 °F 48.7 °F 100% 29.82 in 10.0 mi West 4.6 mph - N/A   Scattered Clouds
5:36 AM 48.6 °F 48.6 °F 100% 29.83 in 10.0 mi West 4.6 mph - N/A   Clear
5:56 AM 47.7 °F 47.7 °F 100% 29.83 in 10.0 mi West 4.6 mph - N/A   Clear
6:16 AM 47.8 °F 47.8 °F 100% 29.84 in 10.0 mi West 4.6 mph - N/A   Clear
6:36 AM 47.8 °F 47.8 °F 100% 29.84 in 10.0 mi West 5.8 mph - N/A   Clear
6:56 AM 48.0 °F 48.0 °F 100% 29.85 in 10.0 mi West 4.6 mph - N/A   Clear
7:16 AM 50.2 °F 50.2 °F 100% 29.85 in 10.0 mi Calm Calm - N/A   Scattered Clouds
7:36 AM 52.7 °F 52.7 °F 100% 29.86 in 10.0 mi West 4.6 mph - N/A   Scattered Clouds
7:56 AM 52.7 °F 51.8 °F 97% 29.87 in 10.0 mi West 4.6 mph - N/A   Clear
8:16 AM 52.7 °F 50.9 °F 94% 29.87 in 10.0 mi West 4.6 mph - N/A   Scattered Clouds
8:36 AM 55.4 °F 51.1 °F 85% 29.87 in 10.0 mi WNW 10.4 mph - N/A   Scattered Clouds
8:56 AM 56.8 °F 50.7 °F 80% 29.87 in 10.0 mi WNW 8.1 mph - N/A   Scattered Clouds
9:16 AM 57.2 °F 49.8 °F 76% 29.88 in 10.0 mi WNW 11.5 mph 16.1 mph N/A   Mostly Cloudy
9:36 AM 59.2 °F 50.7 °F 74% 29.88 in 10.0 mi WSW 9.2 mph - N/A   Scattered Clouds
9:56 AM 58.3 °F 49.5 °F 72% 29.89 in 10.0 mi West 10.4 mph 16.1 mph N/A   Scattered Clouds
10:16 AM 58.6 °F 48.4 °F 69% 29.89 in 10.0 mi WNW 9.2 mph - N/A   Mostly Cloudy
10:36 AM 58.8 °F 48.9 °F 70% 29.89 in 10.0 mi WNW 8.1 mph - N/A   Mostly Cloudy
10:56 AM 60.3 °F 49.3 °F 67% 29.90 in 10.0 mi West 8.1 mph - N/A   Overcast
11:16 AM 60.4 °F 48.7 °F 65% 29.90 in 10.0 mi WNW 8.1 mph - N/A   Overcast
11:36 AM 61.5 °F 47.5 °F 60% 29.91 in 10.0 mi West 8.1 mph - N/A   Mostly Cloudy
11:56 AM 62.8 °F 48.6 °F 60% 29.91 in 10.0 mi West 10.4 mph - N/A   Mostly Cloudy
12:16 PM 65.3 °F 49.3 °F 56% 29.91 in 10.0 mi WNW 8.1 mph - N/A   Mostly Cloudy
12:36 PM 62.8 °F 47.5 °F 57% 29.92 in 10.0 mi WNW 8.1 mph 16.1 mph N/A   Mostly Cloudy
12:56 PM 65.1 °F 48.7 °F 55% 29.92 in 10.0 mi NW 11.5 mph - N/A   Mostly Cloudy
1:16 PM 67.8 °F 50.0 °F 53% 29.93 in 10.0 mi West 12.7 mph 16.1 mph N/A   Mostly Cloudy
1:36 PM 65.7 °F 46.8 °F 50% 29.93 in 10.0 mi WSW 5.8 mph - N/A   Mostly Cloudy
1:56 PM 66.9 °F 48.0 °F 51% 29.93 in 10.0 mi West 13.8 mph 21.9 mph N/A   Overcast
2:16 PM 67.8 °F 48.2 °F 49% 29.93 in 10.0 mi WNW 11.5 mph 18.4 mph N/A   Mostly Cloudy
2:36 PM 68.0 °F 46.9 °F 47% 29.93 in 10.0 mi West 11.5 mph 18.4 mph N/A   Overcast
2:56 PM 68.0 °F 47.3 °F 47% 29.93 in 10.0 mi West 10.4 mph 16.1 mph N/A   Mostly Cloudy
3:16 PM 68.2 °F 46.6 °F 46% 29.94 in 10.0 mi West 13.8 mph 18.4 mph N/A   Mostly Cloudy
3:36 PM 66.7 °F 48.4 °F 52% 29.95 in 10.0 mi NW 11.5 mph - N/A   Overcast
3:56 PM 68.0 °F 46.2 °F 46% 29.95 in 10.0 mi West 11.5 mph 17.3 mph N/A   Overcast
4:16 PM 66.9 °F 48.6 °F 52% 29.95 in 10.0 mi NW 9.2 mph 17.3 mph N/A   Overcast
4:36 PM 68.0 °F 48.7 °F 50% 29.95 in 10.0 mi NW 13.8 mph 20.7 mph N/A   Overcast
4:56 PM 65.3 °F 48.6 °F 55% 29.96 in 10.0 mi NW 11.5 mph 18.4 mph N/A   Overcast
5:16 PM 68.0 °F 48.9 °F 50% 29.96 in 10.0 mi NW 12.7 mph 16.1 mph N/A   Overcast
5:36 PM 67.8 °F 48.9 °F 51% 29.97 in 10.0 mi NW 12.7 mph - N/A   Overcast
5:56 PM 67.6 °F 48.4 °F 50% 29.97 in 10.0 mi West 11.5 mph 17.3 mph N/A   Overcast
6:16 PM 65.5 °F 48.0 °F 53% 29.97 in 10.0 mi NW 10.4 mph 16.1 mph N/A   Mostly Cloudy
6:36 PM 68.0 °F 49.8 °F 52% 29.98 in 10.0 mi WNW 9.2 mph - N/A   Mostly Cloudy
6:56 PM 66.7 °F 49.1 °F 53% 29.98 in 10.0 mi West 10.4 mph - N/A   Scattered Clouds
7:16 PM 66.0 °F 48.9 °F 54% 29.99 in 10.0 mi WNW 10.4 mph - N/A   Clear
7:36 PM 65.1 °F 48.9 °F 56% 29.99 in 10.0 mi WNW 9.2 mph - N/A   Clear
7:56 PM 62.8 °F 48.2 °F 59% 30.00 in 10.0 mi WNW 8.1 mph - N/A   Clear
8:16 PM 62.1 °F 48.6 °F 61% 30.00 in 10.0 mi NW 4.6 mph - N/A   Clear
8:36 PM 60.8 °F 47.7 °F 62% 30.01 in 10.0 mi NW 5.8 mph - N/A   Clear
8:56 PM 59.0 °F 47.1 °F 65% 30.01 in 10.0 mi WNW 5.8 mph - N/A   Clear
9:16 PM 57.7 °F 48.2 °F 70% 30.02 in 10.0 mi WNW 4.6 mph - N/A   Scattered Clouds
9:36 PM 57.7 °F 49.1 °F 73% 30.02 in 10.0 mi WNW 5.8 mph - N/A   Overcast
9:56 PM 57.7 °F 49.8 °F 75% 30.04 in 10.0 mi WNW 4.6 mph - N/A   Overcast
10:16 PM 56.5 °F 50.0 °F 79% 30.04 in 10.0 mi Calm Calm - N/A   Overcast
10:36 PM 55.4 °F 50.0 °F 82% 30.05 in 10.0 mi Calm Calm - N/A   Scattered Clouds
10:56 PM 52.7 °F 50.0 °F 91% 30.06 in 10.0 mi Calm Calm - N/A   Scattered Clouds
11:16 PM 52.7 °F 51.8 °F 97% 30.07 in 10.0 mi Calm Calm - N/A   Scattered Clouds
11:36 PM 52.5 °F 52.2 °F 99% 30.07 in 10.0 mi Calm Calm - N/A   Clear
11:56 PM 50.2 °F 50.0 °F 99% 30.07 in 10.0 mi Calm Calm - N/A   Clear